Fort Knox, KY

9:42 PM EST on December 15, 2019 (GMT -0500)
Godman Army Air Field

Weather History for KFTK - October, 2019

Change the Weather History Date:

Friday, October 25, 2019

  Actual Average Record
Temperature  
Mean Temperature 52 °F -  
Max Temperature 60 °F 64 °F 79 °F (2012)
Min Temperature 45 °F 43 °F 24 °F (2013)
Degree Days  
Heating Degree Days 12    
Growing Degree Days 2 (Base 50)    
Moisture  
Dew Point 49 °F    
Average Humidity 83    
Maximum Humidity 99    
Minimum Humidity 65    
Precipitation  
Precipitation 0.02 in - - ()
Sea Level Pressure  
Sea Level Pressure 30.24 in    
Wind  
Wind Speed 4 mph (NE)    
Max Wind Speed 8 mph    
Max Gust Speed -    
Visibility 10 miles    
Events Rain    
Averages and records for this station are not official NWS values.
T = Trace of Precipitation, MM = Missing Value Source: NWS Daily Summary

Daily Weather History Graph

Daily Weather History Graph

Search for Another Location

Airport or City:

Astronomy

Oct. 25, 2019 Rise Set
Actual Time 8:01 AM EDT 6:53 PM EDT
Civil Twilight 7:35 AM EDT 7:20 PM EDT
Nautical Twilight 7:04 AM EDT 7:50 PM EDT
Astronomical Twilight 6:33 AM EDT 8:21 PM EDT
Moon 4:48 AM EDT (10/25) 5:51 PM EDT (10/25)
Length of Visible Light 11h 45m
Length of Day
10h 51m
Waning Crescent, 9% of the Moon is Illuminated
Oct 25
Waning Crescent
Oct 27
New
Nov 4
First Quarter
Nov 12
Full
Nov 19
Last Quarter

Hourly Weather History & Observations

Time (EDT) Temp. Windchill Dew Point Humidity Pressure Visibility Wind Dir Wind Speed Gust Speed Precip Events Conditions
12:16 AM 53.6 °F - 46.4 °F 77% 30.30 in 10.0 mi North 4.6 mph - N/A   Mostly Cloudy
12:56 AM 53.2 °F - 45.9 °F 76% 30.29 in 10.0 mi NNE 5.8 mph - N/A   Overcast
1:43 AM 51.8 °F - 46.4 °F 82% 30.27 in 10.0 mi NNE 5.8 mph - N/A   Partly Cloudy
1:56 AM 51.8 °F - 45.5 °F 79% 30.27 in 10.0 mi NNE 4.6 mph - N/A   Scattered Clouds
2:26 AM 51.8 °F - 46.4 °F 82% 30.26 in 10.0 mi NNE 5.8 mph - N/A   Scattered Clouds
2:56 AM 51.8 °F - 45.9 °F 80% 30.26 in 10.0 mi NE 3.5 mph - N/A   Mostly Cloudy
3:56 AM 47.1 °F - 45.1 °F 93% 30.27 in 10.0 mi Calm Calm - N/A   Partly Cloudy
5:56 AM 50.7 °F - 47.3 °F 88% 30.26 in 10.0 mi NNE 3.5 mph - N/A   Overcast
6:30 AM 50.0 °F - 46.4 °F 87% 30.28 in 10.0 mi Calm Calm - N/A   Overcast
6:56 AM 50.2 °F - 46.8 °F 88% 30.27 in 10.0 mi Calm Calm - N/A   Overcast
7:56 AM 45.3 °F 43.0 °F 45.1 °F 99% 30.28 in 10.0 mi North 4.6 mph - N/A   Partly Cloudy
8:56 AM 49.5 °F - 48.0 °F 95% 30.28 in 10.0 mi North 4.6 mph - N/A   Clear
9:56 AM 51.8 °F - 48.7 °F 89% 30.30 in 10.0 mi Calm Calm - N/A   Partly Cloudy
10:56 AM 54.3 °F - 47.3 °F 77% 30.29 in 10.0 mi ENE 4.6 mph - N/A   Clear
11:19 AM 55.4 °F - 46.4 °F 72% 30.27 in 10.0 mi ENE 5.8 mph - N/A   Mostly Cloudy
11:56 AM 55.8 °F - 46.9 °F 72% 30.26 in 10.0 mi Calm Calm - N/A   Mostly Cloudy
12:56 PM 59.2 °F - 47.5 °F 65% 30.25 in 10.0 mi NNE 3.5 mph - N/A   Clear
1:56 PM 60.3 °F - 48.9 °F 66% 30.25 in 10.0 mi Calm Calm - N/A   Partly Cloudy
2:25 PM 59.0 °F - 50.0 °F 72% 30.23 in 10.0 mi North 3.5 mph - N/A   Partly Cloudy
2:56 PM 59.5 °F - 49.8 °F 70% 30.22 in 10.0 mi North 3.5 mph - N/A   Clear
3:21 PM 60.8 °F - 50.0 °F 68% 30.20 in 8.0 mi ENE 4.6 mph - N/A   Mostly Cloudy
3:46 PM 60.8 °F - 50.0 °F 68% 30.20 in 10.0 mi Calm Calm - N/A   Light Drizzle
3:56 PM 59.9 °F - 49.6 °F 69% 30.20 in 10.0 mi Calm Calm - 0.00 in   Light Drizzle
5:01 PM 57.2 °F - 53.6 °F 88% 30.21 in 10.0 mi NNE 4.6 mph - N/A   Mostly Cloudy
5:30 PM 57.2 °F - 51.8 °F 82% 30.19 in 10.0 mi ESE 8.1 mph - N/A   Scattered Clouds
5:56 PM 57.0 °F - 51.6 °F 82% 30.20 in 10.0 mi NE 3.5 mph - 0.00 in   Mostly Cloudy
6:06 PM 57.2 °F - 51.8 °F 82% 30.22 in 10.0 mi NNW 6.9 mph - N/A   Mostly Cloudy
6:56 PM 56.1 °F - 51.3 °F 84% 30.22 in 10.0 mi East 6.9 mph - N/A   Overcast
7:24 PM 57.2 °F - 51.8 °F 82% 30.20 in 10.0 mi East 8.1 mph - N/A   Overcast
7:56 PM 56.1 °F - 50.4 °F 81% 30.22 in 10.0 mi East 6.9 mph - N/A   Scattered Clouds
8:56 PM 55.0 °F - 51.3 °F 87% 30.20 in 10.0 mi East 6.9 mph - N/A   Overcast
9:56 PM 54.0 °F - 52.0 °F 93% 30.21 in 10.0 mi ENE 3.5 mph - N/A   Overcast
10:05 PM 53.6 °F - 51.8 °F 94% 30.21 in 10.0 mi ENE 5.8 mph - N/A Rain Light Rain
10:24 PM 53.6 °F - 51.8 °F 94% 30.20 in 10.0 mi ENE 4.6 mph - N/A   Overcast
10:56 PM 53.6 °F - 52.5 °F 96% 30.19 in 10.0 mi ENE 4.6 mph - 0.00 in   Overcast
11:06 PM 53.6 °F - 51.8 °F 94% 30.19 in 10.0 mi East 6.9 mph - N/A Rain Light Rain
11:56 PM 52.9 °F - 52.5 °F 99% 30.16 in 10.0 mi ENE 8.1 mph - 0.02 in Rain Light Rain
11:59 PM 53.6 °F - 51.8 °F 94% 30.16 in 10.0 mi ENE 6.9 mph - N/A   Clear